Tracking 31013 objects as of 11-Jul-2025
HD Live streaming from Space Station
objects crossing your sky now

STARLINK-5366

Track STARLINK-5366 now!
10-day predictions
STARLINK-5366 is classified as:


NORAD ID: 55499
Int'l Code: 2023-015BC
Perigee: 565.3 km
Apogee: 567.1 km
Inclination: 43.0 °
Period: 95.8 minutes
Semi major axis: 6937 km
RCS: Unknown
Launch date: February 2, 2023
Source: United States (US)
Launch site: AIR FORCE EASTERN TEST RANGE (AFETR)
Your satellite tracking list
Your tracking list is empty




NASA's NSSDC Master Catalog

Two Line Element Set (TLE):
1 55499U 23015BC  25191.13622646 -.00000627  00000-0 -31340-4 0  9993
2 55499  43.0028 216.4284 0001291 275.7428  84.3267 15.02532055134877
Source of the keplerian elements: AFSPC